UTA1225 UUYY-UUDD

Flight info

Callsign UTA1225
Flight time N/A
Altitude 360
Route RATUN N174 MIGRI N155 GOBOM T187 ROMTA
Aircraft B738/M-SDE2FGIRWZ/S

Departure

Time 2026-05-01 15:19
Airport Syktyvkar Airport (UUYY)

Arrival

Time N/A
Airport Domodedovo International Airport (UUDD)
Time Latitude Longitude Altitude Speed Heading
2026-05-01 14:56 61.66236 50.85471 300 ft 0 kts 304°
2026-05-01 15:13 61.66249 50.85420 298 ft 5 kts 283°
2026-05-01 15:14 61.66201 50.85322 296 ft 6 kts 203°
2026-05-01 15:14 61.66153 50.85282 298 ft 9 kts 201°
2026-05-01 15:14 61.66017 50.85167 296 ft 11 kts 202°
2026-05-01 15:15 61.65874 50.85231 297 ft 10 kts 157°
2026-05-01 15:15 61.65743 50.85343 297 ft 10 kts 166°
2026-05-01 15:16 61.65625 50.85312 297 ft 0 kts 201°
2026-05-01 15:18 61.65522 50.85226 300 ft 37 kts 202°
2026-05-01 15:18 61.65259 50.85003 299 ft 85 kts 202°
2026-05-01 15:19 61.62387 50.82573 1623 ft 155 kts 214°
2026-05-01 15:19 61.61164 50.78410 2463 ft 195 kts 244°
2026-05-01 15:19 61.60257 50.74790 2877 ft 223 kts 243°
2026-05-01 15:20 61.58938 50.69617 3734 ft 248 kts 243°
2026-05-01 15:20 61.58127 50.66475 4713 ft 248 kts 242°
2026-05-01 15:20 61.57294 50.63267 5565 ft 252 kts 243°
2026-05-01 15:21 61.56449 50.60030 6462 ft 254 kts 243°
2026-05-01 15:21 61.55593 50.56759 7299 ft 257 kts 243°
2026-05-01 15:21 61.54723 50.53449 8115 ft 261 kts 242°
2026-05-01 15:21 61.53837 50.50090 8928 ft 264 kts 242°
2026-05-01 15:22 61.52029 50.43254 10420 ft 276 kts 242°
2026-05-01 15:22 61.51056 50.39580 10611 ft 300 kts 242°
2026-05-01 15:22 61.50000 50.35605 10809 ft 323 kts 242°
2026-05-01 15:23 61.48883 50.31408 11225 ft 336 kts 242°
2026-05-01 15:23 61.47730 50.27095 11872 ft 342 kts 242°
2026-05-01 15:23 61.46564 50.22739 12627 ft 345 kts 242°
2026-05-01 15:23 61.45383 50.18340 13355 ft 349 kts 242°
2026-05-01 15:24 61.44185 50.13880 14041 ft 354 kts 242°
2026-05-01 15:24 61.42971 50.09374 14655 ft 358 kts 243°
2026-05-01 15:24 61.41744 50.04823 15311 ft 361 kts 243°
2026-05-01 15:24 61.40504 50.00236 15948 ft 365 kts 243°
2026-05-01 15:25 61.39250 49.95604 16565 ft 369 kts 243°
2026-05-01 15:25 61.37978 49.90917 17176 ft 373 kts 243°
2026-05-01 15:25 61.36709 49.86250 17788 ft 377 kts 243°
2026-05-01 15:25 61.35408 49.81477 18396 ft 381 kts 243°
2026-05-01 15:26 61.34091 49.76653 18890 ft 386 kts 243°
2026-05-01 15:26 61.32755 49.71767 19298 ft 392 kts 244°
2026-05-01 15:26 61.31389 49.66774 19630 ft 401 kts 244°
2026-05-01 15:26 61.29996 49.61707 20127 ft 404 kts 244°
2026-05-01 15:27 61.28591 49.56612 20640 ft 408 kts 244°
2026-05-01 15:27 61.27150 49.51479 21079 ft 414 kts 244°
2026-05-01 15:27 61.25649 49.46327 21515 ft 419 kts 243°
2026-05-01 15:28 61.22557 49.35897 22390 ft 429 kts 243°
2026-05-01 15:28 61.20984 49.30605 22806 ft 433 kts 243°
2026-05-01 15:28 61.19394 49.25250 23222 ft 438 kts 243°
2026-05-01 15:29 61.16172 49.14408 23946 ft 446 kts 244°
2026-05-01 15:29 61.14531 49.08895 24220 ft 451 kts 244°
2026-05-01 15:29 61.11231 48.97853 24974 ft 456 kts 244°
2026-05-01 15:30 61.07872 48.86671 25689 ft 461 kts 244°
2026-05-01 15:31 61.01007 48.63970 27016 ft 471 kts 243°
2026-05-01 15:31 60.97501 48.52458 27486 ft 479 kts 243°
2026-05-01 15:32 60.93943 48.40802 28119 ft 483 kts 243°
2026-05-01 15:32 60.90348 48.29076 28721 ft 487 kts 243°
2026-05-01 15:33 60.84872 48.11326 29566 ft 493 kts 243°
2026-05-01 15:34 60.79378 47.93651 30553 ft 492 kts 242°